When you browse on this site, cookies collect data to enhance your experience and personalize the content and advertising you see.
Visit our Privacy Policy to learn more. By continuing to use the site, you agree to this use of cookies and data.
  • In Romania
  • List of Countries
  • For 7 days
  • Water Temperature
  • Weather Map
  • Weather Widgets
  • user-avatar
    Login

    Hourly Weather Hanoi

    Today, 8 December, Sunday

    Time Temperature Precipitation Wind Pressure Humidity
    00:00 +14°C° 0 mm 1 mps 768 mmHg 40%
    01:00 +14°C° 0 mm 1 mps 768 mmHg 42%
    02:00 +13°C° 0 mm 2 mps 768 mmHg 44%
    03:00 +13°C° 0 mm 2 mps 768 mmHg 46%
    04:00 +12°C° 0 mm 2 mps 768 mmHg 48%
    05:00 +12°C° 0 mm 2 mps 768 mmHg 51%
    06:00 +12°C° 0 mm 2 mps 769 mmHg 54%
    07:00 +12°C° 0 mm 1 mps 769 mmHg 58%
    08:00 +14°C° 0 mm 2 mps 769 mmHg 51%
    09:00 +16°C° 0 mm 2 mps 770 mmHg 44%
    10:00 +18°C° 0 mm 2 mps 770 mmHg 37%
    11:00 +20°C° 0 mm 2 mps 768 mmHg 32%
    12:00 +21°C° 0 mm 2 mps 767 mmHg 28%
    13:00 +23°C° 0 mm 1 mps 766 mmHg 23%
    14:00 +23°C° 0 mm 1 mps 766 mmHg 22%
    15:00 +23°C° 0 mm 1 mps 765 mmHg 22%
    16:00 +23°C° 0 mm 1 mps 765 mmHg 21%
    17:00 +22°C° 0 mm 1 mps 766 mmHg 24%
    18:00 +20°C° 0 mm 1 mps 766 mmHg 26%
    19:00 +19°C° 0 mm 1 mps 766 mmHg 29%
    20:00 +18°C° 0 mm 1 mps 767 mmHg 32%
    21:00 +18°C° 0 mm 1 mps 767 mmHg 36%
    22:00 +16°C° 0 mm 1 mps 767 mmHg 39%
    23:00 +16°C° 0 mm 1 mps 767 mmHg 41%

    Tomorrow, 9 December, Monday

    Time Temperature Precipitation Wind Pressure Humidity
    00:00 +15°C° 0 mm 1 mps 767 mmHg 43%
    01:00 +15°C° 0 mm 1 mps 766 mmHg 45%
    02:00 +14°C° 0 mm 1 mps 766 mmHg 46%
    03:00 +14°C° 0 mm 1 mps 766 mmHg 47%
    04:00 +14°C° 0 mm 1 mps 767 mmHg 48%
    05:00 +13°C° 0 mm 1 mps 767 mmHg 50%
    06:00 +13°C° 0 mm 2 mps 767 mmHg 52%
    07:00 +13°C° 0 mm 2 mps 767 mmHg 53%
    08:00 +15°C° 0 mm 2 mps 767 mmHg 48%
    09:00 +17°C° 0 mm 2 mps 767 mmHg 43%
    10:00 +19°C° 0 mm 3 mps 767 mmHg 38%
    11:00 +20°C° 0 mm 2 mps 766 mmHg 34%
    12:00 +21°C° 0 mm 2 mps 765 mmHg 30%
    13:00 +23°C° 0 mm 2 mps 764 mmHg 26%
    14:00 +24°C° 0 mm 1 mps 764 mmHg 25%
    15:00 +24°C° 0 mm 1 mps 763 mmHg 25%
    16:00 +24°C° 0 mm 1 mps 763 mmHg 25%
    17:00 +22°C° 0 mm 1 mps 763 mmHg 28%
    18:00 +21°C° 0 mm 1 mps 763 mmHg 32%
    19:00 +19°C° 0 mm 1 mps 764 mmHg 35%
    20:00 +19°C° 0 mm 1 mps 764 mmHg 38%
    21:00 +18°C° 0 mm 1 mps 764 mmHg 41%
    22:00 +16°C° 0 mm 1 mps 764 mmHg 44%
    23:00 +16°C° 0 mm 1 mps 764 mmHg 46%

    Day after tomorrow, 10 December, Tuesday

    Time Temperature Precipitation Wind Pressure Humidity
    00:00 +14°C° 0 mm 0 mps 764 mmHg 49%
    01:00 +14°C° 0 mm 0 mps 763 mmHg 51%
    02:00 +14°C° 0 mm 1 mps 763 mmHg 52%
    03:00 +14°C° 0 mm 1 mps 763 mmHg 53%
    04:00 +14°C° 0 mm 1 mps 763 mmHg 54%
    05:00 +13°C° 0 mm 1 mps 763 mmHg 56%
    06:00 +13°C° 0 mm 1 mps 764 mmHg 57%
    07:00 +13°C° 0 mm 2 mps 764 mmHg 59%
    08:00 +15°C° 0 mm 2 mps 764 mmHg 53%
    09:00 +17°C° 0 mm 2 mps 764 mmHg 47%
    10:00 +19°C° 0 mm 2 mps 764 mmHg 42%
    11:00 +20°C° 0 mm 2 mps 763 mmHg 38%
    12:00 +23°C° 0 mm 1 mps 762 mmHg 33%
    13:00 +24°C° 0 mm 1 mps 762 mmHg 29%
    14:00 +24°C° 0 mm 1 mps 761 mmHg 28%
    15:00 +24°C° 0 mm 1 mps 761 mmHg 27%
    16:00 +24°C° 0 mm 1 mps 760 mmHg 27%
    17:00 +21°C° 0 mm 0 mps 761 mmHg 30%
    18:00 +19°C° 0 mm 0 mps 761 mmHg 33%
    19:00 +18°C° 0 mm 0 mps 762 mmHg 36%
    20:00 +19°C° 0 mm 1 mps 762 mmHg 40%
    21:00 +19°C° 0 mm 1 mps 762 mmHg 44%
    22:00 +17°C° 0 mm 2 mps 763 mmHg 48%
    23:00 +16°C° 0 mm 1 mps 763 mmHg 51%

    11 December, Wednesday

    Time Temperature Precipitation Wind Pressure Humidity
    00:00 +16°C° 0 mm 1 mps 763 mmHg 53%
    01:00 +15°C° 0 mm 0 mps 763 mmHg 56%
    02:00 +15°C° 0 mm 1 mps 763 mmHg 57%
    03:00 +15°C° 0 mm 1 mps 763 mmHg 57%
    04:00 +14°C° 0 mm 1 mps 763 mmHg 58%
    05:00 +14°C° 0 mm 2 mps 763 mmHg 59%
    06:00 +14°C° 0 mm 2 mps 763 mmHg 60%
    07:00 +14°C° 0 mm 2 mps 764 mmHg 61%
    08:00 +16°C° 0 mm 2 mps 764 mmHg 55%
    09:00 +18°C° 0 mm 2 mps 764 mmHg 49%
    10:00 +20°C° 0 mm 3 mps 764 mmHg 43%
    11:00 +21°C° 0 mm 2 mps 763 mmHg 38%
    12:00 +24°C° 0 mm 2 mps 762 mmHg 33%
    13:00 +25°C° 0 mm 2 mps 762 mmHg 28%
    14:00 +25°C° 0 mm 2 mps 761 mmHg 28%
    15:00 +25°C° 0 mm 1 mps 761 mmHg 28%
    16:00 +25°C° 0 mm 1 mps 761 mmHg 27%
    17:00 +22°C° 0 mm 0 mps 761 mmHg 30%
    18:00 +20°C° 0 mm 0 mps 762 mmHg 33%
    19:00 +19°C° 0 mm 0 mps 762 mmHg 36%
    20:00 +18°C° 0 mm 0 mps 762 mmHg 40%
    21:00 +20°C° 0 mm 1 mps 763 mmHg 44%
    22:00 +19°C° 0 mm 1 mps 763 mmHg 48%
    23:00 +18°C° 0 mm 1 mps 763 mmHg 50%

    12 December, Thursday

    Time Temperature Precipitation Wind Pressure Humidity
    00:00 +16°C° 0 mm 0 mps 763 mmHg 53%
    01:00 +15°C° 0 mm 0 mps 763 mmHg 56%
    02:00 +16°C° 0 mm 1 mps 763 mmHg 56%
    03:00 +16°C° 0 mm 1 mps 763 mmHg 57%
    04:00 +15°C° 0 mm 2 mps 763 mmHg 57%
    05:00 +15°C° 0 mm 2 mps 764 mmHg 58%
    06:00 +14°C° 0 mm 2 mps 764 mmHg 59%
    07:00 +14°C° 0 mm 2 mps 764 mmHg 60%
    08:00 +16°C° 0 mm 2 mps 765 mmHg 53%
    09:00 +18°C° 0 mm 2 mps 765 mmHg 47%
    10:00 +20°C° 0 mm 3 mps 765 mmHg 41%
    11:00 +23°C° 0 mm 2 mps 764 mmHg 37%
    12:00 +24°C° 0 mm 2 mps 763 mmHg 33%
    13:00 +26°C° 0 mm 1 mps 762 mmHg 28%
    14:00 +26°C° 0 mm 1 mps 762 mmHg 28%
    15:00 +26°C° 0 mm 1 mps 762 mmHg 27%
    16:00 +24°C° 0 mm 0 mps 761 mmHg 27%
    17:00 +24°C° 0 mm 1 mps 762 mmHg 32%
    18:00 +23°C° 0 mm 1 mps 762 mmHg 37%
    19:00 +21°C° 0 mm 1 mps 763 mmHg 42%
    20:00 +20°C° 0 mm 2 mps 763 mmHg 51%
    21:00 +19°C° 0 mm 2 mps 764 mmHg 60%
    22:00 +18°C° 0 mm 2 mps 764 mmHg 70%
    23:00 +19°C° 0 mm 1 mps 764 mmHg 71%

    13 December, Friday

    Time Temperature Precipitation Wind Pressure Humidity
    00:00 +18°C° 0 mm 1 mps 764 mmHg 73%
    01:00 +16°C° 0 mm 0 mps 763 mmHg 74%
    02:00 +15°C° 0 mm 0 mps 763 mmHg 74%
    03:00 +15°C° 0 mm 0 mps 763 mmHg 74%
    04:00 +15°C° 0 mm 0 mps 763 mmHg 74%
    05:00 +16°C° 0 mm 1 mps 764 mmHg 74%
    06:00 +15°C° 0 mm 1 mps 764 mmHg 73%
    07:00 +15°C° 0 mm 1 mps 764 mmHg 73%
    08:00 +18°C° 0 mm 1 mps 764 mmHg 66%
    09:00 +20°C° 0 mm 1 mps 765 mmHg 59%
    10:00 +22°C° 0 mm 1 mps 765 mmHg 52%
    11:00 +23°C° 0 mm 1 mps 764 mmHg 47%
    12:00 +25°C° 0 mm 1 mps 763 mmHg 43%
    13:00 +24°C° 0 mm 0 mps 762 mmHg 38%
    14:00 +26°C° 0 mm 1 mps 762 mmHg 38%
    15:00 +26°C° 0 mm 1 mps 761 mmHg 37%
    16:00 +26°C° 0 mm 1 mps 761 mmHg 36%
    17:00 +25°C° 0 mm 1 mps 761 mmHg 41%
    18:00 +23°C° 0 mm 2 mps 762 mmHg 46%
    19:00 +21°C° 0 mm 2 mps 762 mmHg 51%
    20:00 +20°C° 0 mm 2 mps 762 mmHg 57%
    21:00 +19°C° 0 mm 2 mps 763 mmHg 64%
    22:00 +19°C° 0 mm 2 mps 763 mmHg 70%
    23:00 +19°C° 0 mm 1 mps 763 mmHg 72%
    Show more